Regional Weather Roundup
Issued by NWS Grand Forks, ND

Home | Current Version | Previous Version | Text Only | Print | Product List | Glossary Off
Versions: 1 2 3 4 5 6 7 8 9 10 11 12 13 14 15 16 17 18 19 20 21 22 23 24 25 26 27 28 29 30 31 32 33 34 35 36 37 38 39 40 41 42 43 44 45 46 47 48 49 50

000
ASUS43 KFGF 060210
RWRFGF
PRAIRIE TO PINES  WEATHER ROUNDUP
NATIONAL WEATHER SERVICE EASTERN NORTH DAKOTA/GRAND FORKS ND
800 PM CST FRI FEB 05 2016

 **SATELLITE DATA USED TO AUGMENT SKY COVER AT AUTOMATED STATIONS**
 *****  WEATHER ACROSS EASTERN NORTH DAKOTA  *****

CITY           SKY/WX    TMP DP  RH WIND       PRES   REMARKS
GRAND FORKS    CLOUDY    18  14  84 SW6       30.11F WCI  10
GRAND FRKS AFB CLOUDY    19  15  85 S5        30.10F WCI  12
GRAND FRKS NWS   N/A     19 N/A N/A NW1         N/A
DEVILS LAKE    CLOUDY    18  15  88 CALM      30.05F
FARGO          CLOUDY    22  18  85 SW3       30.13F
WAHPETON ARPT  CLOUDY    14  10  85 CALM      30.16S VSB 1/2
$$

 ***** WEATHER ACROSS CENTRAL AND WESTERN NORTH DAKOTA  *****

CITY           SKY/WX    TMP DP  RH WIND       PRES   REMARKS
BISMARCK       CLEAR     28  21  75 SE3       30.09F
MINOT          CLOUDY    34  21  59 SW6       30.00F
JAMESTOWN      CLOUDY    23  17  78 SW5       30.08F WCI  17
MINOT AFB      CLOUDY    27  23  84 CALM      30.00F
GARRISON         N/A     26  20  77 S5        30.03F WCI  20
WILLISTON      CLOUDY    33  25  72 CALM      30.00F
DICKINSON      CLOUDY    31  22  69 SW12      30.02F WCI  22
HETTINGER      CLOUDY    26  19  74 W7        30.10F WCI  18
$$

 *****  OTHER AIRPORT OBSERVATIONS IN OUR AREA  *****

CITY           SKY/WX    TMP DP  RH WIND       PRES   REMARKS
WALHALLA       FAIR      21  21 100 S3        30.07S
GRAFTON AIRPOR FAIR      14  14 100 S7        30.11S WCI   4
VALLEY CITY AR FAIR      19  19 100 S5        30.12F WCI  13
CANDO          NOT AVBL
CAVALIER APRT  FAIR      16  14  93 S7        30.08S WCI   6
GWINNER          N/A     18  16  93 S5        30.14F WCI  11
ROLLA          MOCLDY    23  18  80 SW6       30.01F WCI  16
 ***** THE ABOVE OBSERVATIONS ARE NON NWS ARE NOT QUALITY
       CONTROLLED AND MAY MIS-REPORT RAIN FOR SNOW...
$$

  *****  WEATHER ACROSS NORTHERN MINNESOTA  *****

CITY           SKY/WX    TMP DP  RH WIND       PRES   REMARKS
FLAG ISLAND    CLOUDY    19  16  86 CALM      30.06S
WARROAD        CLOUDY    19  16  86 SW3       30.08F
ROSEAU         CLOUDY    19  16  86 SW6       30.08F WCI  11
HALLOCK        CLOUDY    12  10  92 S6        30.10S WCI   3
THF RVR FALLS  CLOUDY    12  10  92 S5        30.11F WCI   4
BAUDETTE       CLOUDY    23  14  68 W8        30.06S WCI  14
WASKISH        CLOUDY    19  16  86 SW7       30.09S WCI  10
CROOKSTON      CLOUDY    12  12 100 SE6       30.13F WCI   3
GREENBUSH NDAW   N/A     10   9  92 S2          N/A
$$
  *****  WEATHER ACROSS CENTRAL AND WEST MINNESOTA  *****

CITY           SKY/WX    TMP DP  RH WIND       PRES   REMARKS
FOSSTON        FOG        9   7  92 S3        30.11F VSB 1/4
BEMIDJI        CLEAR     18  17  93 W5        30.09S WCI  11
PARK RAPIDS    MOCLDY    20  16  84 W8        30.10S WCI  10
ELBOW LAKE     SNOW      20  20  97 CALM      30.15S VSB 1/2
WADENA         CLOUDY    23  19  86 W3        30.11F
DETROIT LAKES  CLOUDY    25  23  93 CALM      30.13R
MOORHEAD       CLOUDY    19  18  93 S3        30.15F FOG
FERGUS FALLS   FOG       19  16  86 CALM      30.18S VSB 1/4
MORRIS MN      CLEAR     25  23  93 SW3       30.15S FOG
STAPLES        CLOUDY    23  19  86 W6        30.12F WCI  16
$$
  *****  WEATHER ELSEWHERE ACROSS MINNESOTA  *****

CITY           SKY/WX    TMP DP  RH WIND       PRES   REMARKS
DULUTH         CLOUDY    24  13  62 W12       30.08F WCI  13
INTRNTL FALLS  CLOUDY    23  15  71 W6        30.06S WCI  16
ELY            CLOUDY    23  16  74 W5        30.05S WCI  17
CLOQUET        CLOUDY    25  12  58 SW5       30.09F WCI  19
WHEATON        CLEAR     25  21  86 W3        30.18S
BRAINERD       CLOUDY    24  17  74 SW6       30.13S WCI  17
HIBBING        CLOUDY    24  15  68 S3        30.07S
ALEXANDRIA     CLOUDY    25  22  88 W5        30.13F WCI  19
SAINT CLOUD    PTCLDY    21  16  81 S8        30.15F WCI  11
MINNEAPOLIS    FLURRIES  25  19  78 S8        30.20F WCI  16
$$

  *****  WEATHER ACROSS SOUTH DAKOTA  *****

CITY           SKY/WX    TMP DP  RH WIND       PRES   REMARKS
SIOUX FALLS    CLOUDY    29  25  85 NW6       30.20S WCI  23
BROOKINGS      FOG       19  18  93 W6        30.16F VSB 1/2 WCI  11
WATERTOWN      FOG       17  14  88 CALM      30.15R VSB 1/4
HURON          CLEAR     29  24  82 W7        30.19R WCI  22
SISSETON         N/A     20  18  92 CALM      30.15S
ABERDEEN       CLEAR     24  19  81 SW7       30.16S WCI  16
MITCHELL       CLEAR     28  27  96 SW6       30.21F WCI  22
PIERRE         CLEAR     31  25  78 SW9       30.17F WCI  23
MOBRIDGE       CLEAR     29  22  75 SE5       30.11S WCI  24
RAPID CITY     CLEAR     29  21  72 SW6       30.16F WCI  23
$$

  *****  SOME WEATHER IN NEARBY STATES *****

CITY           SKY/WX    TMP DP  RH WIND       PRES   REMARKS
GLASGOW MT     CLOUDY    36  25  64 SW7       29.97F
GREAT FALLS MT CLOUDY    42  23  46 SW23      30.06S
CHEYENNE WY    CLOUDY    23   7  50 W13       30.23S WCI  11
SCOTTSBLUFF NE CLEAR     24  14  65 W7        30.27S WCI  16
OMAHA NE       CLOUDY    30  28  92 S8        30.24F FOG     WCI  22
DES MOINES IA  FLURRIES  30  23  75 S8        30.28F WCI  22
DAVENPORT IA   MOCLDY    28  21  75 S5        30.33F WCI  23
CHICAGO IL     CLOUDY    29  21  72 W7        30.34R WCI  22
EAU CLAIRE WI  CLOUDY    23  13  65 S8        30.21F WCI  14
LA CROSSE WI   CLOUDY    24  14  65 S12       30.27F WCI  13
$$

  *****  SOME NATIONAL WEATHER *****

CITY           SKY/WX    TMP DP  RH WIND       PRES   REMARKS
LA GUARDIA NY  CLEAR     36  16  44 NW17G24   30.29R
RALEIGH NC     PTCLDY    33  24  69 CALM      30.38S
ATLANTA GA     CLEAR     39  17  41 NW9       30.36R
NEW ORLEANS LA PTCLDY    46  25  43 CALM      30.37S
OKLAHOMA CITY  CLOUDY    48  27  44 S8        30.25R
ALBUQUERQUE NM CLEAR     37   6  27 N10G18    30.40R
SALT LAKE CITY PTCLDY    32  26  78 CALM      30.54R
LOS ANGELES CA PTCLDY    69  36  29 SW3       30.25R
BOISE ID       MOCLDY    38  32  79 SE13      30.44R
SEATTLE WA     LGT RAIN  48  43  82 S23G35    30.09R
$$

*** WEATHER ACROSS MANITOBA...SASKATCHEWAN AND ONTARIO ***
                ***ONTARIO***

CITY           SKY/WX    TMP DP  RH WIND       PRES   REMARKS
GERALDTON      FLURRIES   9   7  92 S2        30.04F
THUNDER BAY    FLURRIES  19  18  93 CALM      30.07F
SIOUX LOOKOUT  FLURRIES  10   9  92 S2        30.01F
TORONTO        MOCLDY    30  21  69 SW8       30.28F WCI  23
BIG TROUT LK   LGT SNOW  -8 -13  77 N9G17     30.04R WCI -25
PICKLE LAKE    LGT SNOW   9   3  78 W7        29.95F WCI  -3
DRYDEN         CLOUDY    16  12  86 W7        30.01F WCI   6
KENORA         CLOUDY    18  12  79 W3        30.04S
$$
                *** MANITOBA***

CITY           SKY/WX    TMP DP  RH WIND       PRES   REMARKS
BRANDON        CLOUDY    16  12  86 CALM      30.00F
DAUPHIN        CLOUDY    19  16  86 S5        30.02S WCI  13
ISLAND LAKE    PTCLDY    -8 -13  77 N5        30.10S WCI -19
PILOT MOUND      N/A     14  12  92 S6          N/A  WCI   5
THE PAS        FLURRIES   9   5  85 E8        30.00F WCI  -4
THOMPSON       CRYSTALS -20 -26  76 NE5       30.11F WCI -33
WINNIPEG       CLOUDY    16  12  86 S7        30.08F WCI   6
LYNN LAKE      CLOUDY   -15 -20  76 SE7       30.02S WCI -31
CHURCHILL      CLEAR    -35 -42  67 W6        30.22F WCI -53
GILLAM         CLEAR    -27 -33  75 NW2       30.17F
$$
                ***SASKATCHEWAN***

CITY           SKY/WX    TMP DP  RH WIND       PRES   REMARKS
ESTEVAN        PTCLDY    23  21  93 S9        29.96S WCI  13
KINDERSLEY     PTCLDY    28  23  80 S12       29.73F WCI  18
LLOYDMINSTER   MOCLDY    27  21  80 S10       29.65F WCI  17
PRINCE ALBERT  MOCLDY    19  16  86 SE9       29.81F WCI   9
REGINA         PTCLDY    25  19  80 S12       29.89F WCI  14
YORKTON        MOCLDY    18  16  93 SE6       29.93F WCI   9
N. BATTLEFORD  PTCLDY    19  18  93 E10       29.74F WCI   8
LA RONGE       FLURRIES  14  10  85 E10       29.80F WCI   1
SASKATOON      CLOUDY    27  21  80 S10       29.79F WCI  17
SWIFT CURRENT  CLEAR     36  28  75 SW18      29.81F
$$
NOTE: THESE ARE AUTOMATED STATIONS WITH LIMITED QUALITY CONTROL
      "FAIR" INDICATES FEW OR NO CLOUDS BELOW 12,000 FEET WITH NO
      SIGNIFICANT WEATHER AND/OR OBSTRUCTIONS TO VISIBILITY.
      SKY/WX - SKY CONDITION AND SIGNIFICANT WEATHER.
      TMP - AIR TEMPERATURE.    DP   - DEWPOINT TEMPERATURE.
      RH  - RELATIVE HUMIDITY.  PRES - PRESSURE.
      HX  - HEAT INDEX.         WCI  - WIND CHILL INDEX.
$



USA.gov is the U.S. government's official web portal to all federal, state and local government web resources and services.